owner,sensor,date,latitude,longitude,vertical_datum,wind_speed,wind_to_direction,wind_speed_of_gust,qcFlag 
WAVCIS,ioos:station:WAVCIS:CSI03:3,2009-10-01T00:00:00Z,29.4412,-92.0613,10.0,1.858,150.0,,'11111222,11111222,99999999' 
WAVCIS,ioos:station:WAVCIS:CSI03:3,2009-10-01T01:00:00Z,29.4412,-92.0613,10.0,1.718,156.0,,'11111222,11111222,99999999' 
WAVCIS,ioos:station:WAVCIS:CSI03:3,2009-10-01T02:00:00Z,29.4412,-92.0613,10.0,2.963,142.0,,'11111222,11111222,99999999' 
WAVCIS,ioos:station:WAVCIS:CSI03:3,2009-10-01T03:00:00Z,29.4412,-92.0613,10.0,3.221,154.0,,'11111222,11111222,99999999' 
WAVCIS,ioos:station:WAVCIS:CSI03:3,2009-10-01T04:00:00Z,29.4412,-92.0613,10.0,3.552,147.0,,'11111222,11111222,99999999' 
WAVCIS,ioos:station:WAVCIS:CSI03:3,2009-10-01T05:00:00Z,29.4412,-92.0613,10.0,4.189,154.0,,'11111222,11111222,99999999' 
WAVCIS,ioos:station:WAVCIS:CSI03:3,2009-10-01T06:00:00Z,29.4412,-92.0613,10.0,4.823,159.0,,'11111222,11111222,99999999' 
WAVCIS,ioos:station:WAVCIS:CSI03:3,2009-10-01T07:00:00Z,29.4412,-92.0613,10.0,5.572,169.0,,'11111222,11111222,99999999' 
WAVCIS,ioos:station:WAVCIS:CSI03:3,2009-10-01T08:00:00Z,29.4412,-92.0613,10.0,5.168,167.0,,'11111222,11111222,99999999' 
WAVCIS,ioos:station:WAVCIS:CSI03:3,2009-10-01T09:00:00Z,29.4412,-92.0613,10.0,4.502,176.0,,'11111222,11111222,99999999' 
WAVCIS,ioos:station:WAVCIS:CSI03:3,2009-10-01T10:00:00Z,29.4412,-92.0613,10.0,4.641,181.0,,'11111222,11111222,99999999' 
WAVCIS,ioos:station:WAVCIS:CSI03:3,2009-10-01T11:00:00Z,29.4412,-92.0613,10.0,2.748,190.0,,'11111222,11111222,99999999' 
WAVCIS,ioos:station:WAVCIS:CSI03:3,2009-10-01T12:00:00Z,29.4412,-92.0613,10.0,3.073,191.0,,'11111222,11111222,99999999' 
WAVCIS,ioos:station:WAVCIS:CSI03:3,2009-10-01T13:00:00Z,29.4412,-92.0613,10.0,3.109,189.0,,'11111222,11111222,99999999' 
WAVCIS,ioos:station:WAVCIS:CSI03:3,2009-10-01T14:00:00Z,29.4412,-92.0613,10.0,3.217,188.0,,'11111222,11111222,99999999' 
WAVCIS,ioos:station:WAVCIS:CSI03:3,2009-10-01T15:00:00Z,29.4412,-92.0613,10.0,2.847,188.0,,'11111222,11111222,99999999' 
WAVCIS,ioos:station:WAVCIS:CSI03:3,2009-10-01T16:00:00Z,29.4412,-92.0613,10.0,2.471,187.0,,'11111222,11111222,99999999' 
WAVCIS,ioos:station:WAVCIS:CSI03:3,2009-10-01T17:00:00Z,29.4412,-92.0613,10.0,3.041,186.0,,'11111222,11111222,99999999' 
WAVCIS,ioos:station:WAVCIS:CSI03:3,2009-10-01T18:00:00Z,29.4412,-92.0613,10.0,4.126,180.0,,'11111222,11111222,99999999' 
WAVCIS,ioos:station:WAVCIS:CSI03:3,2009-10-01T19:00:00Z,29.4412,-92.0613,10.0,4.5,187.0,,'11111222,11111222,99999999' 
WAVCIS,ioos:station:WAVCIS:CSI03:3,2009-10-01T20:00:00Z,29.4412,-92.0613,10.0,4.191,181.0,,'11111222,11111222,99999999' 
WAVCIS,ioos:station:WAVCIS:CSI03:3,2009-10-01T21:00:00Z,29.4412,-92.0613,10.0,5.288,178.0,,'11111222,11111222,99999999' 
WAVCIS,ioos:station:WAVCIS:CSI03:3,2009-10-01T22:00:00Z,29.4412,-92.0613,10.0,5.337,176.0,,'11111222,11111222,99999999' 
WAVCIS,ioos:station:WAVCIS:CSI03:3,2009-10-01T23:00:00Z,29.4412,-92.0613,10.0,5.279,169.0,,'11111222,11111222,99999999' 
WAVCIS,ioos:station:WAVCIS:CSI03:3,2009-10-02T00:00:00Z,29.4412,-92.0613,10.0,5.939,158.0,,'11111222,11111222,99999999' 
WAVCIS,ioos:station:WAVCIS:CSI03:3,2009-10-02T01:00:00Z,29.4412,-92.0613,10.0,5.651,169.0,,'11111222,11111222,99999999' 
WAVCIS,ioos:station:WAVCIS:CSI03:3,2009-10-02T02:00:00Z,29.4412,-92.0613,10.0,7.59,162.0,,'11111222,11111222,99999999' 
WAVCIS,ioos:station:WAVCIS:CSI03:3,2009-10-02T03:00:00Z,29.4412,-92.0613,10.0,7.11,173.0,,'11111222,11111222,99999999' 
WAVCIS,ioos:station:WAVCIS:CSI03:3,2009-10-02T04:00:00Z,29.4412,-92.0613,10.0,6.239,182.0,,'11111222,11111222,99999999' 
WAVCIS,ioos:station:WAVCIS:CSI03:3,2009-10-02T05:00:00Z,29.4412,-92.0613,10.0,3.981,186.0,,'11111222,11111222,99999999' 
WAVCIS,ioos:station:WAVCIS:CSI03:3,2009-10-02T06:00:00Z,29.4412,-92.0613,10.0,6.001,204.0,,'11111222,11111222,99999999' 
WAVCIS,ioos:station:WAVCIS:CSI03:3,2009-10-02T07:00:00Z,29.4412,-92.0613,10.0,4.465,184.0,,'11111222,11111222,99999999' 
WAVCIS,ioos:station:WAVCIS:CSI03:3,2009-10-02T08:00:00Z,29.4412,-92.0613,10.0,3.065,228.0,,'11111222,11111222,99999999' 
WAVCIS,ioos:station:WAVCIS:CSI03:3,2009-10-02T09:00:00Z,29.4412,-92.0613,10.0,4.341,201.0,,'11111222,11111222,99999999' 
WAVCIS,ioos:station:WAVCIS:CSI03:3,2009-10-02T10:00:00Z,29.4412,-92.0613,10.0,8.73,8.0,,'11111222,11111222,99999999' 
WAVCIS,ioos:station:WAVCIS:CSI03:3,2009-10-02T11:00:00Z,29.4412,-92.0613,10.0,6.462,27.0,,'11111222,11111222,99999999' 
WAVCIS,ioos:station:WAVCIS:CSI03:3,2009-10-02T12:00:00Z,29.4412,-92.0613,10.0,2.926,32.0,,'11111222,11111222,99999999' 
WAVCIS,ioos:station:WAVCIS:CSI03:3,2009-10-02T13:00:00Z,29.4412,-92.0613,10.0,3.938,81.0,,'11111222,11111222,99999999' 
WAVCIS,ioos:station:WAVCIS:CSI03:3,2009-10-02T14:00:00Z,29.4412,-92.0613,10.0,4.265,103.0,,'11111222,11111222,99999999' 
WAVCIS,ioos:station:WAVCIS:CSI03:3,2009-10-02T15:00:00Z,29.4412,-92.0613,10.0,5.229,146.0,,'11111222,11111222,99999999' 
WAVCIS,ioos:station:WAVCIS:CSI03:3,2009-10-02T16:00:00Z,29.4412,-92.0613,10.0,4.538,121.0,,'11111222,11111222,99999999' 
WAVCIS,ioos:station:WAVCIS:CSI03:3,2009-10-02T17:00:00Z,29.4412,-92.0613,10.0,3.413,130.0,,'11111222,11111222,99999999' 
WAVCIS,ioos:station:WAVCIS:CSI03:3,2009-10-02T18:00:00Z,29.4412,-92.0613,10.0,3.481,119.0,,'11111222,11111222,99999999' 
WAVCIS,ioos:station:WAVCIS:CSI03:3,2009-10-02T19:00:00Z,29.4412,-92.0613,10.0,2.884,118.0,,'11111222,11111222,99999999' 
WAVCIS,ioos:station:WAVCIS:CSI03:3,2009-10-02T20:00:00Z,29.4412,-92.0613,10.0,2.804,177.0,,'11111222,11111222,99999999' 
WAVCIS,ioos:station:WAVCIS:CSI03:3,2009-10-02T21:00:00Z,29.4412,-92.0613,10.0,1.154,283.0,,'11111222,11111222,99999999' 
WAVCIS,ioos:station:WAVCIS:CSI03:3,2009-10-02T22:00:00Z,29.4412,-92.0613,10.0,1.112,323.0,,'11111222,11111222,99999999' 
WAVCIS,ioos:station:WAVCIS:CSI03:3,2009-10-02T23:00:00Z,29.4412,-92.0613,10.0,1.451,351.0,,'11111222,11111222,99999999' 
WAVCIS,ioos:station:WAVCIS:CSI03:3,2009-10-03T00:00:00Z,29.4412,-92.0613,10.0,1.542,353.0,,'11111222,11111222,99999999' 
WAVCIS,ioos:station:WAVCIS:CSI03:3,2009-10-03T01:00:00Z,29.4412,-92.0613,10.0,2.085,338.0,,'11111222,11111222,99999999' 
WAVCIS,ioos:station:WAVCIS:CSI03:3,2009-10-03T02:00:00Z,29.4412,-92.0613,10.0,1.562,2.0,,'11111222,11111222,99999999' 
WAVCIS,ioos:station:WAVCIS:CSI03:3,2009-10-03T03:00:00Z,29.4412,-92.0613,10.0,3.747,23.0,,'11111222,11111222,99999999' 
WAVCIS,ioos:station:WAVCIS:CSI03:3,2009-10-03T04:00:00Z,29.4412,-92.0613,10.0,6.579,56.0,,'11111222,11111222,99999999' 
WAVCIS,ioos:station:WAVCIS:CSI03:3,2009-10-03T05:00:00Z,29.4412,-92.0613,10.0,7.16,58.0,,'11111222,11111222,99999999' 
WAVCIS,ioos:station:WAVCIS:CSI03:3,2009-10-03T06:00:00Z,29.4412,-92.0613,10.0,6.871,59.0,,'11111222,11111222,99999999' 
WAVCIS,ioos:station:WAVCIS:CSI03:3,2009-10-03T07:00:00Z,29.4412,-92.0613,10.0,7.25,61.0,,'11111222,11111222,99999999' 
WAVCIS,ioos:station:WAVCIS:CSI03:3,2009-10-03T08:00:00Z,29.4412,-92.0613,10.0,7.67,61.0,,'11111222,11111222,99999999' 
WAVCIS,ioos:station:WAVCIS:CSI03:3,2009-10-03T09:00:00Z,29.4412,-92.0613,10.0,7.49,71.0,,'11111222,11111222,99999999' 
WAVCIS,ioos:station:WAVCIS:CSI03:3,2009-10-03T10:00:00Z,29.4412,-92.0613,10.0,6.78,75.0,,'11111222,11111222,99999999' 
WAVCIS,ioos:station:WAVCIS:CSI03:3,2009-10-03T11:00:00Z,29.4412,-92.0613,10.0,6.705,84.0,,'11111222,11111222,99999999' 
WAVCIS,ioos:station:WAVCIS:CSI03:3,2009-10-03T12:00:00Z,29.4412,-92.0613,10.0,6.519,79.0,,'11111222,11111222,99999999' 
WAVCIS,ioos:station:WAVCIS:CSI03:3,2009-10-03T13:00:00Z,29.4412,-92.0613,10.0,6.739,70.0,,'11111222,11111222,99999999' 
WAVCIS,ioos:station:WAVCIS:CSI03:3,2009-10-03T14:00:00Z,29.4412,-92.0613,10.0,6.894,83.0,,'11111222,11111222,99999999' 
WAVCIS,ioos:station:WAVCIS:CSI03:3,2009-10-03T15:00:00Z,29.4412,-92.0613,10.0,6.396,90.0,,'11111222,11111222,99999999' 
WAVCIS,ioos:station:WAVCIS:CSI03:3,2009-10-03T16:00:00Z,29.4412,-92.0613,10.0,6.558,109.0,,'11111222,11111222,99999999' 
WAVCIS,ioos:station:WAVCIS:CSI03:3,2009-10-03T17:00:00Z,29.4412,-92.0613,10.0,6.777,118.0,,'11111222,11111222,99999999' 
WAVCIS,ioos:station:WAVCIS:CSI03:3,2009-10-03T18:00:00Z,29.4412,-92.0613,10.0,6.356,114.0,,'11111222,11111222,99999999' 
WAVCIS,ioos:station:WAVCIS:CSI03:3,2009-10-03T19:00:00Z,29.4412,-92.0613,10.0,5.805,114.0,,'11111222,11111222,99999999' 
WAVCIS,ioos:station:WAVCIS:CSI03:3,2009-10-03T20:00:00Z,29.4412,-92.0613,10.0,5.582,131.0,,'11111222,11111222,99999999' 
WAVCIS,ioos:station:WAVCIS:CSI03:3,2009-10-03T21:00:00Z,29.4412,-92.0613,10.0,5.845,127.0,,'11111222,11111222,99999999' 
WAVCIS,ioos:station:WAVCIS:CSI03:3,2009-10-03T22:00:00Z,29.4412,-92.0613,10.0,5.41,136.0,,'11111222,11111222,99999999' 
WAVCIS,ioos:station:WAVCIS:CSI03:3,2009-10-03T23:00:00Z,29.4412,-92.0613,10.0,6.375,142.0,,'11111222,11111222,99999999' 
WAVCIS,ioos:station:WAVCIS:CSI03:3,2009-10-04T00:00:00Z,29.4412,-92.0613,10.0,6.797,141.0,,'11111222,11111222,99999999' 
WAVCIS,ioos:station:WAVCIS:CSI03:3,2009-10-04T01:00:00Z,29.4412,-92.0613,10.0,6.431,145.0,,'11111222,11111222,99999999' 
WAVCIS,ioos:station:WAVCIS:CSI03:3,2009-10-04T02:00:00Z,29.4412,-92.0613,10.0,6.403,134.0,,'11111222,11111222,99999999' 
WAVCIS,ioos:station:WAVCIS:CSI03:3,2009-10-04T03:00:00Z,29.4412,-92.0613,10.0,6.287,140.0,,'11111222,11111222,99999999' 
WAVCIS,ioos:station:WAVCIS:CSI03:3,2009-10-04T04:00:00Z,29.4412,-92.0613,10.0,6.087,127.0,,'11111222,11111222,99999999' 
WAVCIS,ioos:station:WAVCIS:CSI03:3,2009-10-04T05:00:00Z,29.4412,-92.0613,10.0,5.745,119.0,,'11111222,11111222,99999999' 
WAVCIS,ioos:station:WAVCIS:CSI03:3,2009-10-04T06:00:00Z,29.4412,-92.0613,10.0,5.911,111.0,,'11111222,11111222,99999999' 
WAVCIS,ioos:station:WAVCIS:CSI03:3,2009-10-04T07:00:00Z,29.4412,-92.0613,10.0,7.39,110.0,,'11111222,11111222,99999999' 
WAVCIS,ioos:station:WAVCIS:CSI03:3,2009-10-04T08:00:00Z,29.4412,-92.0613,10.0,7.62,121.0,,'11111222,11111222,99999999' 
WAVCIS,ioos:station:WAVCIS:CSI03:3,2009-10-04T09:00:00Z,29.4412,-92.0613,10.0,7.76,127.0,,'11111222,11111222,99999999' 
WAVCIS,ioos:station:WAVCIS:CSI03:3,2009-10-04T10:00:00Z,29.4412,-92.0613,10.0,6.505,138.0,,'11111222,11111222,99999999' 
WAVCIS,ioos:station:WAVCIS:CSI03:3,2009-10-04T11:00:00Z,29.4412,-92.0613,10.0,7.21,174.0,,'11111222,11111222,99999999' 
WAVCIS,ioos:station:WAVCIS:CSI03:3,2009-10-04T12:00:00Z,29.4412,-92.0613,10.0,7.03,170.0,,'11111222,11111222,99999999' 
WAVCIS,ioos:station:WAVCIS:CSI03:3,2009-10-04T13:00:00Z,29.4412,-92.0613,10.0,5.518,183.0,,'11111222,11111222,99999999' 
WAVCIS,ioos:station:WAVCIS:CSI03:3,2009-10-04T14:00:00Z,29.4412,-92.0613,10.0,7.12,201.0,,'11111222,11111222,99999999' 
WAVCIS,ioos:station:WAVCIS:CSI03:3,2009-10-04T15:00:00Z,29.4412,-92.0613,10.0,7.9,172.0,,'11111222,11111222,99999999' 
WAVCIS,ioos:station:WAVCIS:CSI03:3,2009-10-04T16:00:00Z,29.4412,-92.0613,10.0,1.521,203.0,,'11111222,11111222,99999999' 
WAVCIS,ioos:station:WAVCIS:CSI03:3,2009-10-04T17:00:00Z,29.4412,-92.0613,10.0,3.737,203.0,,'11111222,11111222,99999999' 
WAVCIS,ioos:station:WAVCIS:CSI03:3,2009-10-04T18:00:00Z,29.4412,-92.0613,10.0,5.13,204.0,,'11111222,11111222,99999999' 
WAVCIS,ioos:station:WAVCIS:CSI03:3,2009-10-04T19:00:00Z,29.4412,-92.0613,10.0,4.982,191.0,,'11111222,11111222,99999999' 
WAVCIS,ioos:station:WAVCIS:CSI03:3,2009-10-04T20:00:00Z,29.4412,-92.0613,10.0,4.002,225.0,,'11111222,11111222,99999999' 
WAVCIS,ioos:station:WAVCIS:CSI03:3,2009-10-04T21:00:00Z,29.4412,-92.0613,10.0,4.008,209.0,,'11111222,11111222,99999999' 
WAVCIS,ioos:station:WAVCIS:CSI03:3,2009-10-04T22:00:00Z,29.4412,-92.0613,10.0,3.38,225.0,,'11111222,11111222,99999999' 
WAVCIS,ioos:station:WAVCIS:CSI03:3,2009-10-04T23:00:00Z,29.4412,-92.0613,10.0,2.434,217.0,,'11111222,11111222,99999999' 
WAVCIS,ioos:station:WAVCIS:CSI03:3,2009-10-05T00:00:00Z,29.4412,-92.0613,10.0,3.695,207.0,,'11111222,11111222,99999999' 
WAVCIS,ioos:station:WAVCIS:CSI03:3,2009-10-05T01:00:00Z,29.4412,-92.0613,10.0,3.299,229.0,,'11111222,11111222,99999999' 
WAVCIS,ioos:station:WAVCIS:CSI03:3,2009-10-05T02:00:00Z,29.4412,-92.0613,10.0,3.711,230.0,,'11111222,11111222,99999999' 
WAVCIS,ioos:station:WAVCIS:CSI03:3,2009-10-05T03:00:00Z,29.4412,-92.0613,10.0,2.982,234.0,,'11111222,11111222,99999999' 
WAVCIS,ioos:station:WAVCIS:CSI03:3,2009-10-05T04:00:00Z,29.4412,-92.0613,10.0,4.093,234.0,,'11111222,11111222,99999999' 
WAVCIS,ioos:station:WAVCIS:CSI03:3,2009-10-05T05:00:00Z,29.4412,-92.0613,10.0,2.96,237.0,,'11111222,11111222,99999999' 
WAVCIS,ioos:station:WAVCIS:CSI03:3,2009-10-05T06:00:00Z,29.4412,-92.0613,10.0,1.443,229.0,,'11111222,11111222,99999999' 
WAVCIS,ioos:station:WAVCIS:CSI03:3,2009-10-05T07:00:00Z,29.4412,-92.0613,10.0,0.752,211.0,,'11111222,11111222,99999999' 
WAVCIS,ioos:station:WAVCIS:CSI03:3,2009-10-05T08:00:00Z,29.4412,-92.0613,10.0,1.939,235.0,,'11111222,11111222,99999999' 
WAVCIS,ioos:station:WAVCIS:CSI03:3,2009-10-05T09:00:00Z,29.4412,-92.0613,10.0,4.207,236.0,,'11111222,11111222,99999999' 
WAVCIS,ioos:station:WAVCIS:CSI03:3,2009-10-05T10:00:00Z,29.4412,-92.0613,10.0,3.873,238.0,,'11111222,11111222,99999999' 
WAVCIS,ioos:station:WAVCIS:CSI03:3,2009-10-05T11:00:00Z,29.4412,-92.0613,10.0,4.317,246.0,,'11111222,11111222,99999999' 
WAVCIS,ioos:station:WAVCIS:CSI03:3,2009-10-05T12:00:00Z,29.4412,-92.0613,10.0,4.418,245.0,,'11111222,11111222,99999999' 
WAVCIS,ioos:station:WAVCIS:CSI03:3,2009-10-05T13:00:00Z,29.4412,-92.0613,10.0,3.155,239.0,,'11111222,11111222,99999999' 
WAVCIS,ioos:station:WAVCIS:CSI03:3,2009-10-05T14:00:00Z,29.4412,-92.0613,10.0,1.134,216.0,,'11111222,11111222,99999999' 
WAVCIS,ioos:station:WAVCIS:CSI03:3,2009-10-05T15:00:00Z,29.4412,-92.0613,10.0,4.573,234.0,,'11111222,11111222,99999999' 
WAVCIS,ioos:station:WAVCIS:CSI03:3,2009-10-05T16:00:00Z,29.4412,-92.0613,10.0,4.192,242.0,,'11111222,11111222,99999999' 
WAVCIS,ioos:station:WAVCIS:CSI03:3,2009-10-05T17:00:00Z,29.4412,-92.0613,10.0,4.699,275.0,,'11111222,11111222,99999999' 
WAVCIS,ioos:station:WAVCIS:CSI03:3,2009-10-05T18:00:00Z,29.4412,-92.0613,10.0,2.72,270.0,,'11111222,11111222,99999999' 
WAVCIS,ioos:station:WAVCIS:CSI03:3,2009-10-05T19:00:00Z,29.4412,-92.0613,10.0,0.568,183.0,,'11111222,11111222,99999999' 
WAVCIS,ioos:station:WAVCIS:CSI03:3,2009-10-05T20:00:00Z,29.4412,-92.0613,10.0,4.46,328.0,,'11111222,11111222,99999999' 
WAVCIS,ioos:station:WAVCIS:CSI03:3,2009-10-05T21:00:00Z,29.4412,-92.0613,10.0,1.938,357.0,,'11111222,11111222,99999999' 
WAVCIS,ioos:station:WAVCIS:CSI03:3,2009-10-05T22:00:00Z,29.4412,-92.0613,10.0,0.994,111.0,,'11111222,11111222,99999999' 
WAVCIS,ioos:station:WAVCIS:CSI03:3,2009-10-05T23:00:00Z,29.4412,-92.0613,10.0,2.61,332.0,,'11111222,11111222,99999999' 
WAVCIS,ioos:station:WAVCIS:CSI03:3,2009-10-06T00:00:00Z,29.4412,-92.0613,10.0,1.102,56.0,,'11111222,11111222,99999999' 
WAVCIS,ioos:station:WAVCIS:CSI03:3,2009-10-06T01:00:00Z,29.4412,-92.0613,10.0,1.996,117.0,,'11111222,11111222,99999999' 
WAVCIS,ioos:station:WAVCIS:CSI03:3,2009-10-06T02:00:00Z,29.4412,-92.0613,10.0,3.201,135.0,,'11111222,11111222,99999999' 
WAVCIS,ioos:station:WAVCIS:CSI03:3,2009-10-06T03:00:00Z,29.4412,-92.0613,10.0,4.007,149.0,,'11111222,11111222,99999999' 
WAVCIS,ioos:station:WAVCIS:CSI03:3,2009-10-06T04:00:00Z,29.4412,-92.0613,10.0,4.419,143.0,,'11111222,11111222,99999999' 
WAVCIS,ioos:station:WAVCIS:CSI03:3,2009-10-06T05:00:00Z,29.4412,-92.0613,10.0,4.16,146.0,,'11111222,11111222,99999999' 
WAVCIS,ioos:station:WAVCIS:CSI03:3,2009-10-06T06:00:00Z,29.4412,-92.0613,10.0,3.694,165.0,,'11111222,11111222,99999999' 
WAVCIS,ioos:station:WAVCIS:CSI03:3,2009-10-06T07:00:00Z,29.4412,-92.0613,10.0,4.364,177.0,,'11111222,11111222,99999999' 
WAVCIS,ioos:station:WAVCIS:CSI03:3,2009-10-06T08:00:00Z,29.4412,-92.0613,10.0,5.005,179.0,,'11111222,11111222,99999999' 
WAVCIS,ioos:station:WAVCIS:CSI03:3,2009-10-06T09:00:00Z,29.4412,-92.0613,10.0,3.938,182.0,,'11111222,11111222,99999999' 
WAVCIS,ioos:station:WAVCIS:CSI03:3,2009-10-06T10:00:00Z,29.4412,-92.0613,10.0,3.202,197.0,,'11111222,11111222,99999999' 
WAVCIS,ioos:station:WAVCIS:CSI03:3,2009-10-06T11:00:00Z,29.4412,-92.0613,10.0,2.938,195.0,,'11111222,11111222,99999999' 
WAVCIS,ioos:station:WAVCIS:CSI03:3,2009-10-06T12:00:00Z,29.4412,-92.0613,10.0,2.977,196.0,,'11111222,11111222,99999999' 
WAVCIS,ioos:station:WAVCIS:CSI03:3,2009-10-06T13:00:00Z,29.4412,-92.0613,10.0,3.772,197.0,,'11111222,11111222,99999999' 
WAVCIS,ioos:station:WAVCIS:CSI03:3,2009-10-06T14:00:00Z,29.4412,-92.0613,10.0,2.716,199.0,,'11111222,11111222,99999999' 
WAVCIS,ioos:station:WAVCIS:CSI03:3,2009-10-06T15:00:00Z,29.4412,-92.0613,10.0,2.388,201.0,,'11111222,11111222,99999999' 
WAVCIS,ioos:station:WAVCIS:CSI03:3,2009-10-06T16:00:00Z,29.4412,-92.0613,10.0,2.619,196.0,,'11111222,11111222,99999999' 
WAVCIS,ioos:station:WAVCIS:CSI03:3,2009-10-06T17:00:00Z,29.4412,-92.0613,10.0,2.232,196.0,,'11111222,11111222,99999999' 
WAVCIS,ioos:station:WAVCIS:CSI03:3,2009-10-06T18:00:00Z,29.4412,-92.0613,10.0,2.135,201.0,,'11111222,11111222,99999999' 
WAVCIS,ioos:station:WAVCIS:CSI03:3,2009-10-06T19:00:00Z,29.4412,-92.0613,10.0,1.264,206.0,,'11111222,11111222,99999999' 
WAVCIS,ioos:station:WAVCIS:CSI03:3,2009-10-06T20:00:00Z,29.4412,-92.0613,10.0,1.131,205.0,,'11111222,11111222,99999999' 
WAVCIS,ioos:station:WAVCIS:CSI03:3,2009-10-06T21:00:00Z,29.4412,-92.0613,10.0,1.803,197.0,,'11111222,11111222,99999999' 
WAVCIS,ioos:station:WAVCIS:CSI03:3,2009-10-06T22:00:00Z,29.4412,-92.0613,10.0,1.746,191.0,,'11111222,11111222,99999999' 
WAVCIS,ioos:station:WAVCIS:CSI03:3,2009-10-06T23:00:00Z,29.4412,-92.0613,10.0,2.842,193.0,,'11111222,11111222,99999999' 
WAVCIS,ioos:station:WAVCIS:CSI03:3,2009-10-07T00:00:00Z,29.4412,-92.0613,10.0,2.339,191.0,,'11111222,11111222,99999999' 
WAVCIS,ioos:station:WAVCIS:CSI03:3,2009-10-07T01:00:00Z,29.4412,-92.0613,10.0,3.063,195.0,,'11111222,11111222,99999999' 
WAVCIS,ioos:station:WAVCIS:CSI03:3,2009-10-07T02:00:00Z,29.4412,-92.0613,10.0,2.939,196.0,,'11111222,11111222,99999999' 
WAVCIS,ioos:station:WAVCIS:CSI03:3,2009-10-07T03:00:00Z,29.4412,-92.0613,10.0,3.173,197.0,,'11111222,11111222,99999999' 
WAVCIS,ioos:station:WAVCIS:CSI03:3,2009-10-07T04:00:00Z,29.4412,-92.0613,10.0,4.333,185.0,,'11111222,11111222,99999999' 
WAVCIS,ioos:station:WAVCIS:CSI03:3,2009-10-07T05:00:00Z,29.4412,-92.0613,10.0,3.695,186.0,,'11111222,11111222,99999999' 
WAVCIS,ioos:station:WAVCIS:CSI03:3,2009-10-07T06:00:00Z,29.4412,-92.0613,10.0,2.649,197.0,,'11111222,11111222,99999999' 
WAVCIS,ioos:station:WAVCIS:CSI03:3,2009-10-07T07:00:00Z,29.4412,-92.0613,10.0,3.218,197.0,,'11111222,11111222,99999999' 
WAVCIS,ioos:station:WAVCIS:CSI03:3,2009-10-07T08:00:00Z,29.4412,-92.0613,10.0,2.53,191.0,,'11111222,11111222,99999999' 
WAVCIS,ioos:station:WAVCIS:CSI03:3,2009-10-07T09:00:00Z,29.4412,-92.0613,10.0,2.835,194.0,,'11111222,11111222,99999999' 
WAVCIS,ioos:station:WAVCIS:CSI03:3,2009-10-07T10:00:00Z,29.4412,-92.0613,10.0,2.123,192.0,,'11111222,11111222,99999999' 
WAVCIS,ioos:station:WAVCIS:CSI03:3,2009-10-07T11:00:00Z,29.4412,-92.0613,10.0,1.105,188.0,,'11111222,11111222,99999999' 
WAVCIS,ioos:station:WAVCIS:CSI03:3,2009-10-07T12:00:00Z,29.4412,-92.0613,10.0,1.633,190.0,,'11111222,11111222,99999999' 
WAVCIS,ioos:station:WAVCIS:CSI03:3,2009-10-07T13:00:00Z,29.4412,-92.0613,10.0,1.395,188.0,,'11111222,11111222,99999999' 
WAVCIS,ioos:station:WAVCIS:CSI03:3,2009-10-07T14:00:00Z,29.4412,-92.0613,10.0,2.429,188.0,,'11111222,11111222,99999999' 
WAVCIS,ioos:station:WAVCIS:CSI03:3,2009-10-07T15:00:00Z,29.4412,-92.0613,10.0,2.602,192.0,,'11111222,11111222,99999999' 
WAVCIS,ioos:station:WAVCIS:CSI03:3,2009-10-07T16:00:00Z,29.4412,-92.0613,10.0,3.063,195.0,,'11111222,11111222,99999999' 
WAVCIS,ioos:station:WAVCIS:CSI03:3,2009-10-07T17:00:00Z,29.4412,-92.0613,10.0,1.1,189.0,,'11111222,11111222,99999999' 
WAVCIS,ioos:station:WAVCIS:CSI03:3,2009-10-07T18:00:00Z,29.4412,-92.0613,10.0,0.219,203.0,,'11111222,11111222,99999999' 
WAVCIS,ioos:station:WAVCIS:CSI03:3,2009-10-07T19:00:00Z,29.4412,-92.0613,10.0,1.475,186.0,,'11111222,11111222,99999999' 
WAVCIS,ioos:station:WAVCIS:CSI03:3,2009-10-07T20:00:00Z,29.4412,-92.0613,10.0,1.35,189.0,,'11111222,11111222,99999999' 
WAVCIS,ioos:station:WAVCIS:CSI03:3,2009-10-07T21:00:00Z,29.4412,-92.0613,10.0,2.169,187.0,,'11111222,11111222,99999999' 
WAVCIS,ioos:station:WAVCIS:CSI03:3,2009-10-07T22:00:00Z,29.4412,-92.0613,10.0,2.53,190.0,,'11111222,11111222,99999999' 
WAVCIS,ioos:station:WAVCIS:CSI03:3,2009-10-07T23:00:00Z,29.4412,-92.0613,10.0,2.762,194.0,,'11111222,11111222,99999999' 
WAVCIS,ioos:station:WAVCIS:CSI03:3,2009-10-08T00:00:00Z,29.4412,-92.0613,10.0,3.361,187.0,,'11111222,11111222,99999999' 
WAVCIS,ioos:station:WAVCIS:CSI03:3,2009-10-08T01:00:00Z,29.4412,-92.0613,10.0,2.955,187.0,,'11111222,11111222,99999999' 
WAVCIS,ioos:station:WAVCIS:CSI03:3,2009-10-08T02:00:00Z,29.4412,-92.0613,10.0,4.419,176.0,,'11111222,11111222,99999999' 
WAVCIS,ioos:station:WAVCIS:CSI03:3,2009-10-08T03:00:00Z,29.4412,-92.0613,10.0,4.818,177.0,,'11111222,11111222,99999999' 
WAVCIS,ioos:station:WAVCIS:CSI03:3,2009-10-08T04:00:00Z,29.4412,-92.0613,10.0,5.981,176.0,,'11111222,11111222,99999999' 
WAVCIS,ioos:station:WAVCIS:CSI03:3,2009-10-08T05:00:00Z,29.4412,-92.0613,10.0,5.412,174.0,,'11111222,11111222,99999999' 
WAVCIS,ioos:station:WAVCIS:CSI03:3,2009-10-08T06:00:00Z,29.4412,-92.0613,10.0,5.936,174.0,,'11111222,11111222,99999999' 
WAVCIS,ioos:station:WAVCIS:CSI03:3,2009-10-08T07:00:00Z,29.4412,-92.0613,10.0,5.359,180.0,,'11111222,11111222,99999999' 
WAVCIS,ioos:station:WAVCIS:CSI03:3,2009-10-08T08:00:00Z,29.4412,-92.0613,10.0,6.535,180.0,,'11111222,11111222,99999999' 
WAVCIS,ioos:station:WAVCIS:CSI03:3,2009-10-08T09:00:00Z,29.4412,-92.0613,10.0,6.186,182.0,,'11111222,11111222,99999999' 
WAVCIS,ioos:station:WAVCIS:CSI03:3,2009-10-08T10:00:00Z,29.4412,-92.0613,10.0,4.528,184.0,,'11111222,11111222,99999999' 
WAVCIS,ioos:station:WAVCIS:CSI03:3,2009-10-08T11:00:00Z,29.4412,-92.0613,10.0,4.644,186.0,,'11111222,11111222,99999999' 
WAVCIS,ioos:station:WAVCIS:CSI03:3,2009-10-08T12:00:00Z,29.4412,-92.0613,10.0,6.618,178.0,,'11111222,11111222,99999999' 
WAVCIS,ioos:station:WAVCIS:CSI03:3,2009-10-08T13:00:00Z,29.4412,-92.0613,10.0,5.956,181.0,,'11111222,11111222,99999999' 
WAVCIS,ioos:station:WAVCIS:CSI03:3,2009-10-08T14:00:00Z,29.4412,-92.0613,10.0,4.828,183.0,,'11111222,11111222,99999999' 
WAVCIS,ioos:station:WAVCIS:CSI03:3,2009-10-08T15:00:00Z,29.4412,-92.0613,10.0,6.268,180.0,,'11111222,11111222,99999999' 
WAVCIS,ioos:station:WAVCIS:CSI03:3,2009-10-08T16:00:00Z,29.4412,-92.0613,10.0,6.278,178.0,,'11111222,11111222,99999999' 
WAVCIS,ioos:station:WAVCIS:CSI03:3,2009-10-08T17:00:00Z,29.4412,-92.0613,10.0,6.657,176.0,,'11111222,11111222,99999999' 
WAVCIS,ioos:station:WAVCIS:CSI03:3,2009-10-08T18:00:00Z,29.4412,-92.0613,10.0,5.868,174.0,,'11111222,11111222,99999999' 
WAVCIS,ioos:station:WAVCIS:CSI03:3,2009-10-08T19:00:00Z,29.4412,-92.0613,10.0,5.868,178.0,,'11111222,11111222,99999999' 
WAVCIS,ioos:station:WAVCIS:CSI03:3,2009-10-08T20:00:00Z,29.4412,-92.0613,10.0,6.838,173.0,,'11111222,11111222,99999999' 
WAVCIS,ioos:station:WAVCIS:CSI03:3,2009-10-08T21:00:00Z,29.4412,-92.0613,10.0,6.848,173.0,,'11111222,11111222,99999999' 
WAVCIS,ioos:station:WAVCIS:CSI03:3,2009-10-08T22:00:00Z,29.4412,-92.0613,10.0,6.832,172.0,,'11111222,11111222,99999999' 
WAVCIS,ioos:station:WAVCIS:CSI03:3,2009-10-08T23:00:00Z,29.4412,-92.0613,10.0,4.502,184.0,,'11111222,11111222,99999999' 
WAVCIS,ioos:station:WAVCIS:CSI03:3,2009-10-09T00:00:00Z,29.4412,-92.0613,10.0,3.568,187.0,,'11111222,11111222,99999999' 
WAVCIS,ioos:station:WAVCIS:CSI03:3,2009-10-09T01:00:00Z,29.4412,-92.0613,10.0,6.283,176.0,,'11111222,11111222,99999999' 
WAVCIS,ioos:station:WAVCIS:CSI03:3,2009-10-09T02:00:00Z,29.4412,-92.0613,10.0,6.353,174.0,,'11111222,11111222,99999999' 
WAVCIS,ioos:station:WAVCIS:CSI03:3,2009-10-09T03:00:00Z,29.4412,-92.0613,10.0,7.51,174.0,,'11111222,11111222,99999999' 
WAVCIS,ioos:station:WAVCIS:CSI03:3,2009-10-09T04:00:00Z,29.4412,-92.0613,10.0,7.57,173.0,,'11111222,11111222,99999999' 